Location: Ab? ar R?sh Ba?r?
(24.1861°N, 32.8847°E)
Time: 09:47:53
(UTC+00:00)

USA 229 - Pass Details

Date: 24 October 2021
Orbit: 946 x 1266 km, 63.4° (Epoch: 25 November)

Event Time Altitude Azimuth Distance (km) Brightness Sun altitude
Rises 15:30:55 0° 206° (SSW) 3,597 7.1 -4.5°
Reaches altitude 10° 15:33:25 10° 206° (SSW) 2,657 6.4 -5.1°
Maximum altitude 15:39:36 88° 294° (WNW) 968 3.6 -6.4°
Drops below altitude 10° 15:46:04 10° 26° (NNE) 2,775 5.5 -7.9°
Sets 15:48:44 0° 27° (NNE) 3,767 6.2 -8.5°
